AirNav   Pilot Hours Calculator
 
 292 users online  

4P5 Franks Seaplane Base
Lac Du Flambeau, Wisconsin, USA

GOING TO LAC DU FLAMBEAU?


FAA INFORMATION EFFECTIVE 15 AUGUST 2019

Location

FAA Identifier: 4P5
Lat/Long: 45-52-59.8280N 090-00-00.5570W
45-52.997133N 090-00.009283W
45.8832856,-90.0001547
(estimated)
Elevation: 1650 ft. / 503 m (estimated)
Variation: 00W (1985)
From city: 7 miles SW of LAC DU FLAMBEAU, WI
Time zone: UTC -5 (UTC -6 during Standard Time)
Zip code: 54538

Seaplane Base Operations

Seaplane Base use: Open to the public
Activation date: 07/1967
Control tower: no
ARTCC: MINNEAPOLIS CENTER
FSS: GREEN BAY FLIGHT SERVICE STATION
NOTAMs facility: GRB (NOTAM-D service available)
Attendance: MAY-OCT DAWN-DUSK
Wind indicator: no
Segmented circle: no

Seaplane Base Communications

CTAF: 122.9
WX AWOS-3 at ARV (12 nm E): 121.125 (715-356-2417)
WX AWOS-3PT at D25 (15 nm N): 118.375 (715-543-2004)
WX AWOS-3 at PBH (20 nm SW): 125.875 (715-339-4520)

Nearby radio navigation aids

VOR radial/distance  VOR name  Freq  Var
RHIr301/27.2RHINELANDER VOR/DME109.2002E
IWDr171/39.3IRONWOOD VOR/DME108.8001E

 
NDB name  Hdg/Dist  Freq  Var  ID
ARBOR VITAE259/11.622102WARV .- .-. ...-
DOUGY287/11.623602WDO -.. ---
WATERSMEET233/38.640702WRXW .-. -..- .--

Seaplane Base Services

Bottled oxygen: NONE
Bulk oxygen: NONE

Runway Information

Runway N/S

Dimensions: 9000 x 1000 ft. / 2743 x 305 m
Surface: water
RUNWAY N  RUNWAY S
Traffic pattern: leftleft

Runway E/W

Dimensions: 2640 x 1000 ft. / 805 x 305 m
Surface: water
RUNWAY E  RUNWAY W
Traffic pattern: leftleft

Seaplane Base Ownership and Management from official FAA records

Ownership: Privately-owned
Owner: FRANK GALLINA
13726 CRISSIE LANE
LAC DU FLAMBEAU, WI 54538
Manager: FRANK GALLINA
13726 CRISSIE LANE
LAC DU FLAMBEAU, WI 54538

Seaplane Base Operational Statistics

Aircraft based on the field: 1
Single engine airplanes: 1
    
Aircraft operations: 100/year *
50% transient general aviation
50% local general aviation
* for 12-month period ending 14 September 2017

Additional Remarks

NO DOCK.
FOR CD CTC MINNEAPOLIS ARTCC AT 651-463-5588.

Instrument Procedures

There are no published instrument procedures at 4P5.

Some nearby airports with instrument procedures:

KARV - Lakeland Airport/Noble F. Lee Memorial Field (12 nm E)
D25 - Manitowish Waters Airport (15 nm N)
KPKF - Park Falls Municipal Airport (18 nm W)
KPBH - Price County Airport (20 nm SW)
KTKV - Tomahawk Regional Airport (26 nm S)
 
Loc | Ops | Rwys | IFR | FBO | Links
Com | Nav | Svcs | Stats | Notes
Area around 4P5 (Franks Seaplane Base)
 
Road maps at: MapQuest Bing Google
 
Aerial photo
No photo
 
Sectional chart

 
Airport distance calculator
Flying to Franks Seaplane Base? Find the distance to fly.

From to 4P5

Sunrise and sunset
Times for 18-Aug-2019
 Local
(UTC-5)
 Zulu
(UTC)
Morning civil twilight05:3210:32
Sunrise06:0411:04
Sunset20:0301:03
Evening civil twilight20:3501:35

Current date and time
Zulu (UTC)  18-Aug-2019 08:07:04
Local (UTC-5)  18-Aug-2019 03:07:04
 
METAR
KARV 
12nm E 
180755Z AUTO 17005KT 10SM BKN028 18/16 A2979 RMK AO2 T01800160
KD25 
15nm N 
180755Z AUTO 16005KT 10SM CLR 16/16 A2978 RMK AO2 T01610161
KPBH 
20nm SW 
180755Z AUTO 16005KT 10SM BKN030 BKN044 BKN050 18/17 A2976 RMK AO2 T01750168
TAF
KRHI 
26nm SE 
180520Z 1806/1906 16003KT P6SM SCT250 FM180800 17005KT P6SM OVC100 FM181000 18005KT 6SM SHRA BR OVC007 WS020/19035KT TEMPO 1813/1817 2SM TSRA OVC015CB FM181700 25013G22KT P6SM SHRA BKN020 FM182300 29005KT P6SM SCT025
NOTAMs
Click for the latest NOTAMs
NOTAMs are issued by the DoD/FAA and will open in a separate window not controlled by AirNav.

 

 
 

Would you like to see your business listed on this page?

 If your business provides an interesting product or service to pilots, flight crews, aircraft, or users of the Franks Seaplane Base, you should consider listing it here.  To start the listing process, click on the button below
 
Add a business
 

Other Pages about Franks Seaplane Base

Update a link
 
Copyright © AirNav, LLC. All rights reserved. Privacy Policy  Contact